logo
Rechercher aéroport 
image banner adimage banner adimage banner ad
image banner ad

0Q9 - Sonoma Skypark

Situé à Sonoma, United States

ICAO - 0Q9, IATA -

Données fournies par Airmate  

Information générale

Coordonnées: N38°15'27" W122°26'3"
Élévation : 20 feet MSL.
Variation magnétique : 16° East
Voir autres Aéroports à California

Données opérationnelles

Special qualification required
Heure actuelle UTC:
Heure actuelle locale:
Météo à : KAPC - Napa County ( 14 km )
METAR: KAPC 011754Z 28006KT 10SM OVC007 15/12 A2987 RMK AO2 SLP107 T01500117 10150 20128 51007
TAF: KAPC 011729Z 0118/0218 24008KT P6SM SKC TEMPO 0118/0119 BKN007 FM020900 24005KT 6SM BR BKN008 FM021700 VRB03KT P6SM SCT008
Voir NOTAMs / SUP AIP / TFR affectant cet aéroport [VIEW]
Fréquences de communication: [VIEW]

Pistes:

Identifiant RWYQFULongueur (ft)Largeur (ft)SurfaceLDA (ft)
08248040ASPH
26248040ASPH

Coordonnées de l'aéroport

Adresse: Sonoma United States

Vue satellite de 0Q9